FW8979 Weather Reports


time (UTC)temp
C
wind
direction
speed
KPH
gust
KPH
rain 1hr
cm
rain 24hr
cm
rain mn
cm
humidity
%
barometer
mb
20260906123427 22 143 0.0 0.0 0.00 0.41 0.41 99 1003.8
20260906122921 22 143 0.0 0.0 0.00 0.41 0.41 99 1004.1
20260906122416 21 143 0.0 0.0 0.00 0.41 0.41 99 1003.8
20260906121913 21 163 0.0 0.0 0.00 0.41 0.41 99 1003.8
20260906121409 21 158 0.0 0.0 0.00 0.41 0.41 99 1003.6
20260906120905 21 162 0.0 0.0 0.00 0.41 0.41 99 1003.6
20260906120400 21 177 0.0 0.0 0.00 0.41 0.41 99 1003.4
20260906115856 21 170 1.6 3.2 0.00 0.41 0.41 99 1003.6
20260906115351 21 138 0.0 0.0 0.00 0.41 0.41 99 1003.6
20260906114851 21 159 0.0 0.0 0.00 0.41 0.41 99 1003.5
20260906114346 21 159 0.0 0.0 0.00 0.41 0.41 99 1003.5
20260906113841 21 160 0.0 0.0 0.00 0.41 0.41 99 1003.1
20260906113340 21 158 0.0 0.0 0.00 0.41 0.41 99 1003.3
20260906112836 21 125 0.0 0.0 0.00 0.41 0.41 99 1003.4
20260906112332 21 126 0.0 0.0 0.00 0.41 0.41 99 1003.3
20260906111826 21 125 0.0 0.0 0.00 0.41 0.41 99 1003.2
20260906111326 21 125 0.0 0.0 0.00 0.41 0.41 99 1003.1
20260906110821 21 125 0.0 0.0 0.00 0.41 0.41 99 1003.0
20260906110317 21 125 0.0 0.0 0.00 0.41 0.41 99 1003.0
20260906105815 21 125 0.0 0.0 0.00 0.41 0.41 99 1002.9
20260906105311 21 125 0.0 0.0 0.00 0.41 0.41 99 1002.9
20260906104807 21 125 0.0 0.0 0.00 0.41 0.41 99 1002.6
20260906104306 21 125 0.0 0.0 0.00 0.41 0.41 99 1002.7
20260906103804 21 125 0.0 0.0 0.00 0.41 0.41 99 1002.7
20260906103303 21 125 0.0 0.0 0.00 0.41 0.41 99 1002.8
20260906102759 21 151 0.0 1.6 0.00 0.41 0.41 99 1002.7
20260906102258 21 139 0.0 1.6 0.00 0.41 0.41 99 1002.5
20260906101754 21 112 0.0 0.0 0.00 0.41 0.41 99 1002.6
20260906101248 21 127 0.0 0.0 0.00 0.41 0.41 99 1003.0
20260906100744 21 148 0.0 0.0 0.00 0.41 0.41 99 1002.8
20260906100243 21 162 0.0 1.6 0.00 0.41 0.41 99 1002.9
20260906095738 21 154 3.2 4.8 0.00 0.41 0.41 99 1002.8
20260906095233 21 172 0.0 0.0 0.00 0.41 0.41 99 1002.9
20260906094732 21 158 1.6 1.6 0.00 0.41 0.41 99 1002.7
20260906094228 21 133 0.0 0.0 0.00 0.41 0.41 99 1003.0
20260906093724 21 152 0.0 0.0 0.00 0.41 0.41 99 1002.8
20260906093220 21 166 1.6 1.6 0.00 0.41 0.41 99 1002.8
20260906092715 21 131 0.0 1.6 0.00 0.41 0.41 99 1002.9
20260906092214 21 108 0.0 0.0 0.00 0.41 0.41 99 1003.0
20260906091711 21 125 0.0 0.0 0.00 0.41 0.41 99 1003.0
20260906091207 21 153 0.0 0.0 0.00 0.41 0.41 99 1003.0
20260906090703 21 135 0.0 0.0 0.00 0.41 0.41 99 1002.9
20260906090202 21 120 1.6 1.6 0.00 0.41 0.41 99 1003.0
20260906085701 21 192 0.0 0.0 0.13 0.41 0.41 99 1002.8
20260906085200 21 109 1.6 1.6 0.13 0.41 0.41 99 1002.7
20260906084655 21 177 0.0 0.0 0.13 0.41 0.41 99 1003.0
20260906084155 21 167 3.2 3.2 0.00 0.38 0.38 99 1003.0
20260906083649 21 161 0.0 0.0 0.00 0.38 0.38 99 1002.8
20260906083145 21 138 0.0 0.0 0.00 0.38 0.38 99 1002.7
20260906082640 21 184 0.0 1.6 0.00 0.38 0.38 99 1002.7
20260906082136 21 115 0.0 0.0 0.00 0.38 0.38 99 1002.7
20260906081632 21 147 0.0 0.0 0.00 0.38 0.38 99 1002.6
20260906081126 21 117 0.0 0.0 0.00 0.38 0.38 99 1002.8
20260906080623 21 198 0.0 1.6 0.00 0.38 0.38 99 1002.7
20260906080119 21 160 0.0 0.0 0.00 0.38 0.38 99 1003.0
20260906075618 21 178 1.6 1.6 0.00 0.38 0.38 99 1002.7
20260906075113 21 132 1.6 3.2 0.00 0.38 0.38 99 1002.8
20260906074608 21 170 0.0 1.6 0.00 0.38 0.38 99 1002.7
20260906074101 21 84 0.0 0.0 0.00 0.38 0.38 99 1002.7
20260906073557 21 178 0.0 0.0 0.00 0.38 0.38 99 1003.2
20260906073052 21 150 1.6 1.6 0.00 0.38 0.38 99 1003.0
20260906072547 21 121 0.0 1.6 0.00 0.38 0.38 99 1003.0
20260906072043 21 170 0.0 1.6 0.00 0.38 0.38 99 1003.3
20260906071539 21 181 1.6 3.2 0.00 0.38 0.38 99 1003.3
20260906071034 21 138 1.6 1.6 0.00 0.38 0.38 99 1003.5
20260906070530 21 138 1.6 1.6 0.00 0.38 0.38 99 1003.3
20260906070026 21 114 1.6 1.6 0.00 0.38 0.38 99 1003.4
20260906065525 21 176 1.6 1.6 0.00 0.38 0.38 99 1003.7
20260906065021 21 170 6.4 8.0 0.00 0.38 0.38 99 1003.7
20260906064516 21 135 1.6 1.6 0.00 0.38 0.38 99 1003.8
20260906064011 21 164 4.8 8.0 0.00 0.38 0.38 99 1003.6
20260906063507 21 186 1.6 1.6 0.00 0.38 0.38 99 1003.6
20260906063002 21 135 0.0 1.6 0.00 0.38 0.38 99 1003.6
20260906062456 21 144 1.6 1.6 0.00 0.38 0.38 99 1003.1
20260906061951 21 171 1.6 1.6 0.00 0.38 0.38 98 1003.3
20260906061448 21 161 0.0 1.6 0.00 0.38 0.38 99 1003.5
20260906060941 21 168 0.0 0.0 0.00 0.38 0.38 98 1003.3
20260906060439 21 117 0.0 1.6 0.00 0.38 0.38 98 1003.1
20260906055935 21 134 3.2 3.2 0.18 0.38 0.38 98 1003.4
20260906055431 21 173 1.6 3.2 0.48 0.38 0.38 98 1004.2
20260906054926 21 144 0.0 1.6 0.43 0.36 0.36 98 1004.5
20260906054420 21 74 1.6 1.6 0.13 0.30 0.30 98 1004.4
20260906053916 21 176 0.0 0.0 0.00 0.28 0.28 98 1004.3
20260906053412 21 214 0.0 1.6 0.00 0.28 0.28 97 1004.2
20260906052908 21 311 1.6 1.6 0.00 0.28 0.28 97 1003.8
20260906052404 21 183 0.0 0.0 0.00 0.28 0.28 97 1003.3
20260906051901 21 156 1.6 1.6 0.18 0.28 0.28 97 1003.6
20260906051401 21 203 4.8 4.8 1.07 0.28 0.28 97 1004.4
20260906050856 22 203 8.0 9.7 1.98 0.25 0.25 97 1004.8
20260906050351 22 197 3.2 3.2 2.46 0.15 0.15 97 1005.3
20260906045850 22 186 11.3 14.5 4.75 3.63 3.63 97 1005.6
20260906045349 22 214 4.8 8.0 4.55 3.40 3.40 96 1005.6
20260906044846 22 313 8.0 12.9 1.37 2.82 2.82 95 1005.6
20260906044346 22 356 4.8 4.8 0.18 2.62 2.62 94 1005.4
20260906043841 22 73 6.4 9.7 0.00 2.59 2.59 95 1004.7
20260906043337 22 74 4.8 4.8 0.00 2.59 2.59 96 1004.2
20260906042833 22 329 6.4 9.7 0.13 2.59 2.59 95 1003.7
20260906042331 22 128 4.8 4.8 0.89 2.59 2.59 96 1003.0
20260906041827 22 130 12.9 17.7 1.19 2.57 2.57 97 1003.0
20260906041323 22 170 6.4 11.3 1.07 2.44 2.44 97 1003.6
20260906040823 22 123 3.2 4.8 2.77 2.39 2.39 97 1003.4
20260906040318 22 192 8.0 14.5 7.80 2.29 2.29 98 1003.8
20260906035813 22 214 14.5 22.5 9.42 1.88 1.88 96 1004.6
20260906035308 23 59 9.7 16.1 5.82 0.97 0.97 94 1004.4
20260906034803 25 71 4.8 8.0 1.68 0.28 0.28 90 1003.9
20260906034258 26 90 4.8 4.8 0.00 0.00 0.00 77 1003.8
20260906033754 25 245 1.6 3.2 0.00 0.00 0.00 80 1003.7
20260906033253 25 62 6.4 8.0 0.00 0.00 0.00 86 1003.8
20260906032750 25 150 0.0 0.0 0.00 0.00 0.00 86 1003.1
20260906032250 25 152 0.0 0.0 0.00 0.00 0.00 86 1003.1
20260906031745 25 157 0.0 1.6 0.00 0.00 0.00 86 1002.9
20260906031241 25 140 0.0 1.6 0.00 0.00 0.00 85 1002.7
20260906030740 25 190 0.0 0.0 0.00 0.00 0.00 85 1002.5
20260906030236 25 182 0.0 0.0 0.00 0.00 0.00 84 1002.5
20260906025735 25 188 0.0 1.6 0.00 0.00 0.00 84 1002.6
20260906025229 25 252 3.2 3.2 0.00 0.00 0.00 83 1002.7
20260906024728 25 298 3.2 3.2 0.00 0.00 0.00 81 1002.6
20260906024228 25 137 0.0 0.0 0.00 0.00 0.00 79 1002.6
20260906023724 25 136 1.6 1.6 0.00 0.00 0.00 79 1002.6
20260906023219 26 172 0.0 0.0 0.00 0.00 0.00 76 1002.4
20260906022714 26 197 0.0 0.0 0.00 0.00 0.00 75 1002.5
20260906022209 25 160 0.0 0.0 0.00 0.00 0.00 76 1002.3
20260906021706 26 140 0.0 0.0 0.00 0.00 0.00 76 1002.1
20260906021204 26 157 1.6 3.2 0.00 0.00 0.00 74 1002.0
20260906020659 26 164 1.6 3.2 0.00 0.00 0.00 73 1001.8
20260906020154 26 206 1.6 1.6 0.00 0.00 0.00 73 1001.8
20260906015648 26 147 0.0 0.0 0.00 0.00 0.00 75 1001.6
20260906015146 26 155 1.6 1.6 0.00 0.00 0.00 71 1001.4
20260906014641 26 174 1.6 1.6 0.00 0.00 0.00 70 1001.6
20260906014137 26 142 0.0 1.6 0.00 0.00 0.00 74 1001.6
20260906013633 26 102 0.0 1.6 0.00 0.00 0.00 72 1001.8
20260906013128 27 215 1.6 1.6 0.00 0.00 0.00 70 1001.7
20260906012628 27 270 3.2 3.2 0.00 0.00 0.00 69 1001.7
20260906012122 27 96 3.2 3.2 0.00 0.00 0.00 72 1001.8
20260906011618 27 131 1.6 3.2 0.00 0.00 0.00 66 1002.0
20260906011113 27 195 1.6 3.2 0.00 0.00 0.00 68 1002.0
20260906010608 27 235 1.6 3.2 0.00 0.00 0.00 68 1001.9
20260906010104 27 255 8.0 11.3 0.00 0.00 0.00 69 1002.4
20260906005604 27 4 4.8 4.8 0.00 0.00 0.00 68 1003.0
20260906005103 27 348 3.2 3.2 0.00 0.00 0.00 69 1002.7
20260906004602 26 334 3.2 3.2 0.00 0.00 0.00 74 1002.6
20260906004057 28 295 16.1 20.9 0.00 0.00 0.00 75 1002.5
20260906003553 30 352 9.7 12.9 0.00 0.00 0.00 71 1002.2
20260906003049 30 319 11.3 12.9 0.00 0.00 0.00 69 1002.0
20260906002549 30 354 3.2 3.2 0.00 0.00 0.00 70 1001.8
20260906002044 30 204 1.6 1.6 0.00 0.00 0.00 67 1001.7
20260906001539 31 98 0.0 1.6 0.00 0.00 0.00 66 1001.6
20260906001033 31 171 0.0 0.0 0.00 0.00 0.00 65 1001.9
20260906000529 31 123 0.0 0.0 0.00 0.00 0.00 64 1001.4
20260906000024 31 150 1.6 1.6 0.00 0.00 0.00 64 1001.7
20260905235518 31 150 4.8 4.8 0.00 0.00 0.00 63 1001.5
20260905235013 31 215 1.6 3.2 0.00 0.00 0.00 64 1001.7
20260905234509 31 122 0.0 0.0 0.00 0.00 0.00 68 1001.6
20260905234009 31 109 1.6 1.6 0.00 0.00 0.00 63 1001.6
20260905233504 32 169 0.0 1.6 0.00 0.00 0.00 63 1001.7
20260905233003 32 224 0.0 1.6 0.00 0.00 0.00 61 1001.5
20260905232459 32 178 0.0 1.6 0.00 0.00 0.00 60 1001.4
20260905231954 32 143 4.8 4.8 0.00 0.00 0.00 60 1001.3
20260905231450 32 196 4.8 4.8 0.00 0.00 0.00 59 1001.4
20260905230946 32 159 1.6 1.6 0.00 0.00 0.00 61 1001.4
20260905230445 32 174 0.0 0.0 0.00 0.00 0.00 62 1001.5
20260905225943 33 228 3.2 3.2 0.00 0.00 0.00 60 1001.3
20260905225438 33 204 4.8 8.0 0.00 0.00 0.00 60 1001.4
20260905224933 35 234 8.0 11.3 0.00 0.00 0.00 54 1001.3
20260905224429 36 79 1.6 3.2 0.00 0.00 0.00 47 1001.0
20260905223922 36 74 0.0 1.6 0.00 0.00 0.00 54 1001.2
20260905223421 35 219 1.6 1.6 0.00 0.00 0.00 48 1001.2
20260905222921 36 71 3.2 3.2 0.00 0.00 0.00 47 1001.0
20260905222420 36 121 0.0 0.0 0.00 0.00 0.00 49 1001.0
20260905221916 36 148 0.0 0.0 0.00 0.00 0.00 50 1001.1
20260905221413 36 67 0.0 1.6 0.00 0.00 0.00 46 1001.1
20260905220909 36 23 3.2 3.2 0.00 0.00 0.00 48 1001.3
20260905220404 36 70 4.8 4.8 0.00 0.00 0.00 45 1001.3
20260905215903 37 101 1.6 1.6 0.00 0.00 0.00 48 1001.3
20260905215359 37 303 1.6 1.6 0.00 0.00 0.00 46 1001.4
20260905214855 37 170 0.0 0.0 0.00 0.00 0.00 45 1001.2
20260905214350 36 143 1.6 1.6 0.00 0.00 0.00 46 1001.2
20260905213845 37 63 3.2 4.8 0.00 0.00 0.00 45 1001.3
20260905213342 36 98 0.0 0.0 0.00 0.00 0.00 44 1001.1
20260905212841 36 99 3.2 3.2 0.00 0.00 0.00 46 1001.2
20260905212336 36 263 0.0 0.0 0.00 0.00 0.00 49 1001.4
20260905211836 36 293 1.6 3.2 0.00 0.00 0.00 52 1001.2
20260905211331 36 294 4.8 4.8 0.00 0.00 0.00 48 1001.3
20260905210827 35 346 0.0 0.0 0.00 0.00 0.00 51 1001.4
20260905210322 35 341 6.4 9.7 0.00 0.00 0.00 51 1001.3
20260905205821 36 75 0.0 1.6 0.00 0.00 0.00 57 1001.3
20260905205316 35 303 1.6 1.6 0.00 0.00 0.00 53 1001.5
20260905204815 36 15 0.0 1.6 0.00 0.00 0.00 50 1001.6
20260905204311 36 289 1.6 3.2 0.00 0.00 0.00 47 1001.7
20260905203810 36 347 4.8 8.0 0.00 0.00 0.00 49 1001.7
20260905203306 36 318 4.8 4.8 0.00 0.00 0.00 49 1001.7
20260905202801 36 340 9.7 9.7 0.00 0.00 0.00 49 1001.8
20260905202256 37 316 4.8 8.0 0.00 0.00 0.00 48 1001.7
20260905201751 36 22 3.2 4.8 0.00 0.00 0.00 50 1001.8
20260905201246 36 95 0.0 1.6 0.00 0.00 0.00 49 1002.0
20260905200741 36 299 3.2 3.2 0.00 0.00 0.00 49 1002.0
20260905200237 36 51 4.8 4.8 0.00 0.00 0.00 48 1002.3
20260905195735 37 10 4.8 8.0 0.00 0.00 0.00 51 1002.2
20260905195230 36 329 1.6 1.6 0.00 0.00 0.00 50 1002.4
20260905194726 37 165 0.0 0.0 0.00 0.00 0.00 50 1002.6
20260905194225 36 318 1.6 1.6 0.00 0.00 0.00 51 1002.4
20260905193719 37 280 1.6 3.2 0.00 0.00 0.00 49 1002.6
20260905193214 36 131 0.0 0.0 0.00 0.00 0.00 48 1002.5
20260905192710 36 160 1.6 1.6 0.00 0.00 0.00 48 1002.7
20260905192206 36 173 1.6 1.6 0.00 0.00 0.00 49 1002.7
20260905191706 36 94 4.8 8.0 0.00 0.00 0.00 49 1002.8
20260905191204 36 328 6.4 8.0 0.00 0.00 0.00 51 1003.1
20260905190703 36 288 3.2 3.2 0.00 0.00 0.00 50 1003.0
20260905190201 36 303 8.0 9.7 0.00 0.00 0.00 52 1003.0
20260905185701 36 296 1.6 1.6 0.00 0.00 0.00 51 1003.1
20260905185155 35 155 1.6 3.2 0.00 0.00 0.00 54 1003.0
20260905184655 36 78 0.0 1.6 0.00 0.00 0.00 53 1003.4
20260905184154 36 116 4.8 4.8 0.00 0.00 0.00 51 1003.4
20260905183648 36 95 0.0 0.0 0.00 0.00 0.00 53 1003.3
20260905183143 35 345 4.8 4.8 0.00 0.00 0.00 52 1003.5
20260905182643 36 260 0.0 1.6 0.00 0.00 0.00 58 1003.5
20260905182143 36 342 1.6 3.2 0.00 0.00 0.00 52 1003.8
20260905181638 35 223 1.6 1.6 0.00 0.00 0.00 53 1003.9
20260905181137 35 74 0.0 0.0 0.00 0.00 0.00 56 1004.0
20260905180632 35 311 8.0 9.7 0.00 0.00 0.00 56 1004.0
20260905180127 35 0 4.8 4.8 0.00 0.00 0.00 60 1003.9
20260905175626 35 67 1.6 3.2 0.00 0.00 0.00 58 1003.9
20260905175121 35 134 3.2 3.2 0.00 0.00 0.00 58 1003.9
20260905174611 35 68 1.6 3.2 0.00 0.00 0.00 57 1004.1
20260905174106 35 144 1.6 1.6 0.00 0.00 0.00 56 1004.3
20260905173603 34 280 0.0 1.6 0.00 0.00 0.00 60 1003.9
20260905173058 35 76 3.2 3.2 0.00 0.00 0.00 58 1004.2
20260905172556 35 181 4.8 4.8 0.00 0.00 0.00 60 1004.5
20260905172052 34 44 4.8 4.8 0.00 0.00 0.00 59 1004.4
20260905171548 34 324 1.6 1.6 0.00 0.00 0.00 62 1004.0
20260905171044 33 346 1.6 3.2 0.00 0.00 0.00 65 1004.4
20260905170541 33 71 4.8 8.0 0.00 0.00 0.00 62 1004.4
20260905170036 33 306 3.2 3.2 0.00 0.00 0.00 62 1004.4
20260905165530 33 176 3.2 3.2 0.00 0.00 0.00 66 1004.4
20260905165026 33 63 1.6 1.6 0.00 0.00 0.00 64 1004.5
20260905164520 33 72 0.0 1.6 0.00 0.00 0.00 65 1004.7
20260905164015 33 267 3.2 3.2 0.00 0.00 0.00 63 1004.7
20260905163511 33 275 3.2 3.2 0.00 0.00 0.00 64 1004.8
20260905163006 32 274 0.0 0.0 0.00 0.00 0.00 68 1004.9
20260905162502 32 321 3.2 3.2 0.00 0.00 0.00 65 1004.8
20260905161957 32 35 1.6 3.2 0.00 0.00 0.00 67 1005.0
20260905161456 32 28 3.2 3.2 0.00 0.00 0.00 67 1005.1
20260905160954 32 86 1.6 1.6 0.00 0.00 0.00 67 1005.1
20260905160448 31 41 3.2 4.8 0.00 0.00 0.00 68 1005.2
20260905155947 31 334 4.8 4.8 0.00 0.00 0.00 68 1005.2
20260905155443 31 300 1.6 3.2 0.00 0.00 0.00 70 1005.5
20260905154941 31 334 1.6 1.6 0.00 0.00 0.00 72 1005.4
20260905154436 30 334 1.6 1.6 0.00 0.00 0.00 73 1005.3
20260905153932 31 196 1.6 1.6 0.00 0.00 0.00 74 1005.4
20260905153428 30 332 1.6 3.2 0.00 0.00 0.00 74 1005.2
20260905152928 30 277 1.6 1.6 0.00 0.00 0.00 76 1005.2
20260905152428 30 314 1.6 1.6 0.00 0.00 0.00 77 1005.3
20260905151923 29 352 1.6 1.6 0.00 0.00 0.00 79 1005.2
20260905151419 28 76 0.0 0.0 0.00 0.00 0.00 79 1005.4
20260905150918 28 295 3.2 3.2 0.00 0.00 0.00 80 1005.4
20260905150413 28 154 0.0 0.0 0.00 0.00 0.00 81 1005.5
20260905145909 28 88 0.0 0.0 0.00 0.00 0.00 82 1005.4
20260905145404 27 348 1.6 1.6 0.00 0.00 0.00 83 1005.5
20260905144904 27 81 1.6 1.6 0.00 0.00 0.00 83 1005.6
20260905144359 27 25 1.6 1.6 0.00 0.00 0.00 83 1005.5
20260905143858 27 208 0.0 0.0 0.00 0.00 0.00 83 1005.7
20260905143352 27 190 0.0 1.6 0.00 0.00 0.00 84 1005.5
20260905142851 27 72 1.6 1.6 0.00 0.00 0.00 86 1005.6
20260905142350 26 72 1.6 1.6 0.00 0.00 0.00 85 1005.3
20260905141846 26 73 0.0 0.0 0.00 0.00 0.00 85 1005.7
20260905141341 26 96 1.6 1.6 0.00 0.00 0.00 86 1005.4
20260905140838 26 111 0.0 0.0 0.00 0.00 0.00 86 1005.6
20260905140337 26 113 0.0 0.0 0.00 0.00 0.00 86 1005.6
20260905135836 26 113 0.0 0.0 0.00 0.00 0.00 86 1005.4
20260905135332 26 113 0.0 0.0 0.00 0.00 0.00 88 1005.4
20260905134827 26 113 0.0 0.0 0.00 0.00 0.00 88 1005.6
20260905134320 26 114 0.0 0.0 0.00 0.00 0.00 87 1005.5
20260905133815 26 114 0.0 0.0 0.00 0.00 0.00 88 1005.5
20260905133310 25 114 0.0 0.0 0.00 0.00 0.00 89 1005.5
20260905132809 25 114 0.0 0.0 0.00 0.00 0.00 91 1005.7
20260905132306 25 114 0.0 0.0 0.00 0.00 0.00 91 1005.4
20260905131759 25 115 0.0 0.0 0.00 0.00 0.00 89 1005.7
20260905131255 25 173 0.0 0.0 0.00 0.00 0.00 90 1005.8
20260905130749 25 163 0.0 0.0 0.00 0.00 0.00 90 1005.9
20260905130248 25 161 0.0 0.0 0.00 0.00 0.00 90 1005.6
20260905125744 25 166 0.0 1.6 0.00 0.00 0.00 91 1005.9
20260905125239 25 157 1.6 1.6 0.00 0.00 0.00 92 1005.8
20260905124736 24 131 0.0 1.6 0.00 0.00 0.00 93 1006.0
20260905124231 23 160 0.0 0.0 0.00 0.00 0.00 96 1005.8
20260905123726 23 155 0.0 0.0 0.00 0.00 0.00 97 1005.8